Flag for U.S.A. Weather past 2 weeks in Tyler, Texas, U.S.A.

Now
80 °F

Sunny.


Feels Like: 84 °F
Forecast: 72 / 92 °F
Wind: 7 mph from South

Location: Tyler Pounds Field

Current Time: Jul 25, 2014 at 9:51:07 AM

Latest Report: Jul 25, 2014 at 8:53 AM


Visibility: 10 mi

Pressure: 30.01 "Hg

Humidity: 79%

Dew point: 73 °F

Location of TylerLocation

Historic Weather in Tyler — Graph

°F

Tyler temperature yesterday

Maximum temperature yesterday: 90 °F (at 3:53 PM)
Minimum temperature yesterday: 68 °F (at 4:53 AM)
Average temperature yesterday: 78 °F

Past Weeks' High & Low Weather Summary

 TemperatureHumidityPressure
High97 °F (Jul 14, 2:53 PM)94% (Jul 18, 1:02 AM)30.16 "Hg (Jul 18, 1:02 AM)
Low66 °F (Jul 18, 9:53 AM)36% (Jul 15, 6:53 PM)29.87 "Hg (Jul 17, 5:53 PM)
Average79 °F70%30.00 "Hg
* Reported Jul 10 7:53 AM — Jul 25 7:53 AM, Tyler, Weather by CustomWeather, © 2014

Note: Actual official high and low records may vary slightly from our data, if they occured in-between our weather recording intervals... More about our weather records

Advertising

Tyler weather history for previous 24 hours

 ConditionsComfort  
Time TempWeatherWind HumidityBarometerVisibility
7:53 AM
Jul 25
76 °FSunny.6 mph88%30.01 "Hg9 mi
6:53 AM73 °FClear.No wind90%30.01 "Hg8 mi
5:53 AM73 °FClear.No wind90%30.00 "Hg10 mi
4:53 AM74 °FClear.3 mph88%30.00 "Hg10 mi
3:53 AM74 °FClear.3 mph88%29.99 "Hg10 mi
2:53 AM74 °FClear.5 mph91%29.99 "Hg10 mi
1:53 AM75 °FClear.5 mph88%30.00 "Hg10 mi
12:53 AM76 °FClear.3 mph85%29.99 "Hg10 mi
11:53 PM
Jul 24
76 °FClear.3 mph85%29.99 "Hg10 mi
10:53 PM78 °FClear.5 mph79%29.98 "Hg10 mi
9:53 PM79 °FClear.5 mph79%29.98 "Hg10 mi
8:53 PM81 °FSunny.7 mph74%29.96 "Hg10 mi
7:53 PM85 °FSunny.6 mph63%29.94 "Hg10 mi
6:53 PM88 °FSunny.8 mph57%29.94 "Hg10 mi
5:53 PM89 °FSunny.6 mph53%29.95 "Hg10 mi
4:53 PM89 °FSunny.5 mph52%29.97 "Hg10 mi
3:53 PM90 °FSunny.No wind50%29.98 "Hg10 mi
2:53 PM89 °FSunny.6 mph52%30.00 "Hg10 mi
1:53 PM88 °FSunny.7 mph50%30.00 "Hg10 mi
12:53 PM85 °FSunny.3 mph55%30.02 "Hg10 mi
11:53 AM83 °FSunny.No wind57%30.04 "Hg10 mi
10:53 AM80 °FSunny.3 mph74%30.04 "Hg10 mi
9:53 AM76 °FScattered clouds.No wind80%30.05 "Hg10 mi
Weather by CustomWeather, © 2014

See weather overviewHow to use our weather pages